Time,TemperatureF,DewpointF,PressureIn,WindDirection,WindDirectionDegrees,WindSpeedMPH,WindSpeedGustMPH,Humidity,HourlyPrecipIn,Conditions,Clouds,dailyrainin,SolarRadiationWatts/m^2,SoftwareType,DateUTC
2013-05-08 00:12:00,61.0,-33.0,-100.00,SSW,206,0.0,0.0,0,0.00,,,0.00,0.000000,,2013-05-08 10:12:00,
2013-05-08 00:22:00,61.0,-33.0,-100.00,SSW,206,0.0,0.0,0,0.00,,,0.00,0.000000,,2013-05-08 10:22:00,
2013-05-08 00:33:00,61.0,-33.0,-100.00,SSW,206,0.0,0.0,0,0.00,,,0.00,0.000000,,2013-05-08 10:33:00,
2013-05-08 00:42:00,61.0,-33.0,-100.00,SSW,206,0.0,0.0,0,0.00,,,0.00,0.000000,,2013-05-08 10:42:00,
2013-05-08 00:51:00,61.0,-28.0,-100.00,SSW,193,0.0,0.0,2,0.00,,,0.00,0.000000,,2013-05-08 10:51:00,
2013-05-08 01:11:00,61.0,-28.0,-100.00,SSW,193,0.0,0.0,2,0.00,,,0.00,0.000000,,2013-05-08 11:11:00,
2013-05-08 01:22:00,61.0,-28.0,-100.00,SSW,193,0.0,0.0,2,0.00,,,0.00,0.000000,,2013-05-08 11:22:00,
2013-05-08 01:32:00,61.0,-28.0,-100.00,SSW,193,0.0,0.0,2,0.00,,,0.00,0.000000,,2013-05-08 11:32:00,
2013-05-08 01:41:00,61.0,-28.0,-100.00,SSW,193,0.0,0.0,2,0.00,,,0.00,0.000000,,2013-05-08 11:41:00,
2013-05-08 01:51:00,60.0,-16.0,-100.00,SSW,200,0.0,0.0,4,0.00,,,0.00,0.000000,,2013-05-08 11:51:00,
2013-05-08 02:11:00,60.0,-16.0,-100.00,SSW,200,0.0,0.0,4,0.00,,,0.00,0.000000,,2013-05-08 12:11:00,
2013-05-08 02:21:00,60.0,-16.0,-100.00,SSW,200,0.0,0.0,4,0.00,,,0.00,0.000000,,2013-05-08 12:21:00,
2013-05-08 02:31:00,60.0,-16.0,-100.00,SSW,200,0.0,0.0,4,0.00,,,0.00,0.000000,,2013-05-08 12:31:00,
2013-05-08 02:41:00,60.0,-16.0,-100.00,SSW,200,0.0,0.0,4,0.00,,,0.00,0.000000,,2013-05-08 12:41:00,
2013-05-08 02:51:00,60.0,-11.0,-100.00,SW,215,0.0,0.0,5,0.00,,,0.00,0.000000,,2013-05-08 12:51:00,
2013-05-08 03:21:00,60.0,-11.0,-100.00,SW,215,0.0,0.0,5,0.00,,,0.00,0.000000,,2013-05-08 13:21:00,
2013-05-08 03:32:00,60.0,-11.0,-100.00,SW,215,0.0,0.0,5,0.00,,,0.00,0.000000,,2013-05-08 13:32:00,
2013-05-08 03:42:00,60.0,-11.0,-100.00,SW,215,0.0,0.0,5,0.00,,,0.00,0.000000,,2013-05-08 13:42:00,
2013-05-08 03:51:00,60.0,-11.0,-100.00,SSW,199,0.0,0.0,5,0.00,,,0.00,0.000000,,2013-05-08 13:51:00,
2013-05-08 04:11:00,60.0,-11.0,-100.00,SSW,199,0.0,0.0,5,0.00,,,0.00,0.000000,,2013-05-08 14:11:00,
2013-05-08 04:21:00,60.0,-11.0,-100.00,SSW,199,0.0,0.0,5,0.00,,,0.00,0.000000,,2013-05-08 14:21:00,
2013-05-08 04:31:00,60.0,-11.0,-100.00,SSW,199,0.0,0.0,5,0.00,,,0.00,0.000000,,2013-05-08 14:31:00,
2013-05-08 04:42:00,60.0,-11.0,-100.00,SSW,199,0.0,0.0,5,0.00,,,0.00,0.000000,,2013-05-08 14:42:00,
2013-05-08 04:51:00,60.0,-7.0,-100.00,South,187,0.0,0.0,6,0.00,,,0.00,0.000000,,2013-05-08 14:51:00,
2013-05-08 05:11:00,60.0,-7.0,-100.00,South,187,0.0,0.0,6,0.00,,,0.00,0.000000,,2013-05-08 15:11:00,
2013-05-08 05:21:00,60.0,-7.0,-100.00,South,187,0.0,0.0,6,0.00,,,0.00,0.000000,,2013-05-08 15:21:00,
2013-05-08 05:33:00,60.0,-7.0,-100.00,South,187,0.0,0.0,6,0.00,,,0.00,0.000000,,2013-05-08 15:33:00,
2013-05-08 05:42:00,60.0,-7.0,-100.00,South,187,0.0,0.0,6,0.00,,,0.00,0.000000,,2013-05-08 15:42:00,
2013-05-08 05:51:00,59.0,-8.0,-100.00,SSW,204,0.0,0.0,6,0.00,,,-99.99,0.000000,,2013-05-08 15:51:00,
2013-05-08 06:23:00,59.0,-8.0,-100.00,SSW,204,0.0,0.0,6,0.00,,,-99.99,0.000000,,2013-05-08 16:23:00,
2013-05-08 06:33:00,59.0,-8.0,-100.00,SSW,204,0.0,0.0,6,0.00,,,-99.99,0.000000,,2013-05-08 16:33:00,
2013-05-08 06:42:00,59.0,-8.0,-100.00,SSW,204,0.0,0.0,6,0.00,,,-99.99,0.000000,,2013-05-08 16:42:00,
2013-05-08 06:51:00,61.0,-4.0,-100.00,South,188,0.0,0.0,7,0.00,,,-99.99,14.000000,,2013-05-08 16:51:00,
2013-05-08 07:12:00,61.0,-4.0,-100.00,South,188,0.0,0.0,7,0.00,,,-99.99,14.000000,,2013-05-08 17:12:00,
2013-05-08 07:22:00,61.0,-4.0,-100.00,South,188,0.0,0.0,7,0.00,,,-99.99,14.000000,,2013-05-08 17:22:00,
2013-05-08 07:31:00,61.0,-4.0,-100.00,South,188,0.0,0.0,7,0.00,,,-99.99,14.000000,,2013-05-08 17:31:00,
2013-05-08 07:41:00,61.0,-4.0,-100.00,South,188,0.0,0.0,7,0.00,,,-99.99,14.000000,,2013-05-08 17:41:00,
2013-05-08 07:51:00,66.0,-3.0,-100.00,ENE,71,0.0,0.0,6,0.00,,,-99.99,200.000000,,2013-05-08 17:51:00,
2013-05-08 08:21:00,66.0,-3.0,-100.00,ENE,71,0.0,0.0,6,0.00,,,-99.99,200.000000,,2013-05-08 18:21:00,
2013-05-08 08:31:00,66.0,-3.0,-100.00,ENE,71,0.0,0.0,6,0.00,,,-99.99,200.000000,,2013-05-08 18:31:00,
2013-05-08 08:42:00,66.0,-3.0,-100.00,ENE,71,0.0,0.0,6,0.00,,,-99.99,200.000000,,2013-05-08 18:42:00,
2013-05-08 08:51:00,72.0,-26.0,-100.00,NNE,26,2.0,5.0,0,0.00,,,0.00,506.000000,,2013-05-08 18:51:00,
2013-05-08 09:21:00,72.0,-26.0,-100.00,NNE,26,2.0,5.0,0,0.00,,,0.00,506.000000,,2013-05-08 19:21:00,
2013-05-08 09:32:00,72.0,-26.0,-100.00,NNE,26,2.0,5.0,0,0.00,,,0.00,506.000000,,2013-05-08 19:32:00,
2013-05-08 09:42:00,72.0,-26.0,-100.00,NNE,26,2.0,5.0,0,0.00,,,0.00,506.000000,,2013-05-08 19:42:00,
2013-05-08 09:51:00,74.0,-25.0,-100.00,SE,134,2.0,4.0,0,0.00,,,-99.99,664.000000,,2013-05-08 19:51:00,
2013-05-08 10:11:00,74.0,-25.0,-100.00,SE,134,2.0,4.0,0,0.00,,,-99.99,664.000000,,2013-05-08 20:11:00,
2013-05-08 10:22:00,74.0,-25.0,-100.00,SE,134,2.0,4.0,0,0.00,,,-99.99,664.000000,,2013-05-08 20:22:00,
2013-05-08 10:32:00,74.0,-25.0,-100.00,SE,134,2.0,4.0,0,0.00,,,-99.99,664.000000,,2013-05-08 20:32:00,
2013-05-08 10:41:00,74.0,-25.0,-100.00,SE,134,2.0,4.0,0,0.00,,,-99.99,664.000000,,2013-05-08 20:41:00,
2013-05-08 10:51:00,78.0,-22.0,-100.00,West,268,3.0,7.0,0,0.00,,,0.00,882.000000,,2013-05-08 20:51:00,
2013-05-08 11:21:00,78.0,-22.0,-100.00,West,268,3.0,7.0,0,0.00,,,0.00,882.000000,,2013-05-08 21:21:00,
2013-05-08 11:33:00,78.0,-22.0,-100.00,West,268,3.0,7.0,0,0.00,,,0.00,882.000000,,2013-05-08 21:33:00,
2013-05-08 11:43:00,78.0,-22.0,-100.00,West,268,3.0,7.0,0,0.00,,,0.00,882.000000,,2013-05-08 21:43:00,
2013-05-08 11:51:00,81.0,-20.0,-100.00,West,273,3.0,7.0,0,0.00,,,-99.99,953.000000,,2013-05-08 21:51:00,
2013-05-08 12:12:00,81.0,-20.0,-100.00,West,273,3.0,7.0,0,0.00,,,-99.99,953.000000,,2013-05-08 22:12:00,
2013-05-08 12:22:00,81.0,-20.0,-100.00,West,273,3.0,7.0,0,0.00,,,-99.99,953.000000,,2013-05-08 22:22:00,
2013-05-08 12:33:00,81.0,-20.0,-100.00,West,273,3.0,7.0,0,0.00,,,-99.99,953.000000,,2013-05-08 22:33:00,
2013-05-08 12:42:00,81.0,-20.0,-100.00,West,273,3.0,7.0,0,0.00,,,-99.99,953.000000,,2013-05-08 22:42:00,
2013-05-08 12:51:00,80.0,-21.0,-100.00,West,278,3.0,10.0,0,0.00,,,0.00,803.000000,,2013-05-08 22:51:00,
2013-05-08 13:11:00,80.0,-21.0,-100.00,West,278,3.0,10.0,0,0.00,,,0.00,803.000000,,2013-05-08 23:11:00,
2013-05-08 13:22:00,80.0,-21.0,-100.00,West,278,3.0,10.0,0,0.00,,,0.00,803.000000,,2013-05-08 23:22:00,
2013-05-08 13:32:00,80.0,-21.0,-100.00,West,278,3.0,10.0,0,0.00,,,0.00,803.000000,,2013-05-08 23:32:00,
2013-05-08 13:42:00,80.0,-21.0,-100.00,West,278,3.0,10.0,0,0.00,,,0.00,803.000000,,2013-05-08 23:42:00,
2013-05-08 13:51:00,79.0,-21.0,-100.00,North,356,3.0,8.0,0,0.00,,,0.00,666.000000,,2013-05-08 23:51:00,
2013-05-08 14:21:00,79.0,-21.0,-100.00,North,356,3.0,8.0,0,0.00,,,0.00,666.000000,,2013-05-09 00:21:00,
2013-05-08 14:32:00,79.0,-21.0,-100.00,North,356,3.0,8.0,0,0.00,,,0.00,666.000000,,2013-05-09 00:32:00,
2013-05-08 14:42:00,79.0,-21.0,-100.00,North,356,3.0,8.0,0,0.00,,,0.00,666.000000,,2013-05-09 00:42:00,
2013-05-08 14:51:00,78.0,-22.0,-100.00,South,186,1.0,7.0,0,0.00,,,-99.99,525.000000,,2013-05-09 00:51:00,
2013-05-08 15:11:00,78.0,-22.0,-100.00,South,186,1.0,7.0,0,0.00,,,-99.99,525.000000,,2013-05-09 01:11:00,
2013-05-08 15:22:00,78.0,-22.0,-100.00,South,186,1.0,7.0,0,0.00,,,-99.99,525.000000,,2013-05-09 01:22:00,
2013-05-08 15:32:00,78.0,-22.0,-100.00,South,186,1.0,7.0,0,0.00,,,-99.99,525.000000,,2013-05-09 01:32:00,
2013-05-08 15:42:00,78.0,-22.0,-100.00,South,186,1.0,7.0,0,0.00,,,-99.99,525.000000,,2013-05-09 01:42:00,
2013-05-08 15:51:00,76.0,-23.0,-100.00,WNW,303,2.0,6.0,0,0.00,,,0.00,314.000000,,2013-05-09 01:51:00,
2013-05-08 16:21:00,76.0,-23.0,-100.00,WNW,303,2.0,6.0,0,0.00,,,0.00,314.000000,,2013-05-09 02:21:00,
2013-05-08 16:32:00,76.0,-23.0,-100.00,WNW,303,2.0,6.0,0,0.00,,,0.00,314.000000,,2013-05-09 02:32:00,
2013-05-08 16:41:00,76.0,-23.0,-100.00,WNW,303,2.0,6.0,0,0.00,,,0.00,314.000000,,2013-05-09 02:41:00,
2013-05-08 16:51:00,74.0,-25.0,-100.00,NNE,13,1.0,4.0,0,0.00,,,0.00,169.000000,,2013-05-09 02:51:00,
2013-05-08 17:21:00,74.0,-25.0,-100.00,NNE,13,1.0,4.0,0,0.00,,,0.00,169.000000,,2013-05-09 03:21:00,
2013-05-08 17:33:00,74.0,-25.0,-100.00,NNE,13,1.0,4.0,0,0.00,,,0.00,169.000000,,2013-05-09 03:33:00,
2013-05-08 17:43:00,74.0,-25.0,-100.00,NNE,13,1.0,4.0,0,0.00,,,0.00,169.000000,,2013-05-09 03:43:00,
2013-05-08 17:51:00,71.0,-26.0,-100.00,West,270,1.0,4.0,0,0.00,,,0.00,74.000000,,2013-05-09 03:51:00,
2013-05-08 18:23:00,71.0,-26.0,-100.00,West,270,1.0,4.0,0,0.00,,,0.00,74.000000,,2013-05-09 04:23:00,
2013-05-08 18:32:00,71.0,-26.0,-100.00,West,270,1.0,4.0,0,0.00,,,0.00,74.000000,,2013-05-09 04:32:00,
2013-05-08 18:43:00,71.0,-26.0,-100.00,West,270,1.0,4.0,0,0.00,,,0.00,74.000000,,2013-05-09 04:43:00,
2013-05-08 18:51:00,67.0,-29.0,-100.00,SW,217,0.0,1.0,0,0.00,,,0.00,12.000000,,2013-05-09 04:51:00,
2013-05-08 19:12:00,67.0,-29.0,-100.00,SW,217,0.0,1.0,0,0.00,,,0.00,12.000000,,2013-05-09 05:12:00,
2013-05-08 19:22:00,67.0,-29.0,-100.00,SW,217,0.0,1.0,0,0.00,,,0.00,12.000000,,2013-05-09 05:22:00,
2013-05-08 19:32:00,67.0,-29.0,-100.00,SW,217,0.0,1.0,0,0.00,,,0.00,12.000000,,2013-05-09 05:32:00,
2013-05-08 19:42:00,67.0,-29.0,-100.00,SW,217,0.0,1.0,0,0.00,,,0.00,12.000000,,2013-05-09 05:42:00,
2013-05-08 19:51:00,65.0,-30.0,-100.00,SW,231,0.0,0.0,0,0.00,,,-99.99,1.000000,,2013-05-09 05:51:00,
2013-05-08 20:11:00,65.0,-30.0,-100.00,SW,231,0.0,0.0,0,0.00,,,-99.99,1.000000,,2013-05-09 06:11:00,
2013-05-08 20:21:00,65.0,-30.0,-100.00,SW,231,0.0,0.0,0,0.00,,,-99.99,1.000000,,2013-05-09 06:21:00,
2013-05-08 20:32:00,65.0,-30.0,-100.00,SW,231,0.0,0.0,0,0.00,,,-99.99,1.000000,,2013-05-09 06:32:00,
2013-05-08 20:42:00,65.0,-30.0,-100.00,SW,231,0.0,0.0,0,0.00,,,-99.99,1.000000,,2013-05-09 06:42:00,
2013-05-08 20:51:00,65.0,-30.0,-100.00,SSW,205,0.0,0.0,0,0.00,,,0.00,0.000000,,2013-05-09 06:51:00,
2013-05-08 21:12:00,65.0,-30.0,-100.00,SSW,205,0.0,0.0,0,0.00,,,0.00,0.000000,,2013-05-09 07:12:00,
2013-05-08 21:21:00,65.0,-30.0,-100.00,SSW,205,0.0,0.0,0,0.00,,,0.00,0.000000,,2013-05-09 07:21:00,
2013-05-08 21:32:00,65.0,-30.0,-100.00,SSW,205,0.0,0.0,0,0.00,,,0.00,0.000000,,2013-05-09 07:32:00,
2013-05-08 21:42:00,65.0,-30.0,-100.00,SSW,205,0.0,0.0,0,0.00,,,0.00,0.000000,,2013-05-09 07:42:00,
2013-05-08 21:51:00,64.0,-31.0,-100.00,SSW,206,0.0,0.0,0,0.00,,,0.00,0.000000,,2013-05-09 07:51:00,
2013-05-08 22:11:00,64.0,-31.0,-100.00,SSW,206,0.0,0.0,0,0.00,,,0.00,0.000000,,2013-05-09 08:11:00,
2013-05-08 22:21:00,64.0,-31.0,-100.00,SSW,206,0.0,0.0,0,0.00,,,0.00,0.000000,,2013-05-09 08:21:00,
2013-05-08 22:31:00,64.0,-31.0,-100.00,SSW,206,0.0,0.0,0,0.00,,,0.00,0.000000,,2013-05-09 08:31:00,
2013-05-08 22:41:00,64.0,-31.0,-100.00,SSW,206,0.0,0.0,0,0.00,,,0.00,0.000000,,2013-05-09 08:41:00,
2013-05-08 22:51:00,64.0,-31.0,-100.00,SSW,204,0.0,0.0,0,0.00,,,0.00,0.000000,,2013-05-09 08:51:00,
2013-05-08 23:11:00,64.0,-31.0,-100.00,SSW,204,0.0,0.0,0,0.00,,,0.00,0.000000,,2013-05-09 09:11:00,
2013-05-08 23:21:00,64.0,-31.0,-100.00,SSW,204,0.0,0.0,0,0.00,,,0.00,0.000000,,2013-05-09 09:21:00,
2013-05-08 23:32:00,64.0,-31.0,-100.00,SSW,204,0.0,0.0,0,0.00,,,0.00,0.000000,,2013-05-09 09:32:00,
2013-05-08 23:42:00,64.0,-31.0,-100.00,SSW,204,0.0,0.0,0,0.00,,,0.00,0.000000,,2013-05-09 09:42:00,
2013-05-08 23:51:00,63.0,-31.0,-100.00,SSW,194,0.0,0.0,0,0.00,,,0.00,0.000000,,2013-05-09 09:51:00,